Location: Kruen
(47.5000°N, 11.5000°E)
Time: 22:35:02
(UTC+01:00)

Tiangong - Visible Passes

Search period start: 22 January 2022 00:00
Search period end: 01 February 2022 00:00
Orbit: 383 x 386 km, 41.5° (Epoch: 22 January)

Date Brightness Start Highest point End Pass type
(mag) Time Alt. Az. Time Alt. Az. Time Alt. Az.
27 Jan 4.0 19:24:30 10° SSW 19:24:44 11° SSW 19:24:44 11° SSW visible
28 Jan 3.6 18:25:59 10° S 18:26:55 11° SSE 18:27:52 10° SE visible
29 Jan 3.0 19:01:01 10° SW 19:03:14 20° S 19:03:14 20° S visible
30 Jan 3.4 18:01:47 10° SSW 18:03:46 16° SSE 18:05:45 10° ESE visible
30 Jan 3.6 19:37:18 10° WSW 19:38:29 18° SW 19:38:29 18° SW visible
31 Jan 2.8 18:37:39 10° SW 18:40:18 24° S 18:41:30 19° SE visible
